Weather past 2 weeks in Saipan, Northern Mariana Islands

Now
83 °F

Partly sunny.


Feels Like: 91 °F
Forecast: 77 / 83 °F
Wind: 12 mph from Southwest

Location: Saipan International Airport

Current Time: Jul 31, 2014 at 11:05:36 AM

Latest Report: Jul 31, 2014 at 9:54 AM


Visibility: 10 mi

Pressure: 29.92 "Hg

Humidity: 79%

Dew point: 76 °F

Location of SaipanLocation

Historic Weather in Saipan — Graph

°F

Saipan temperature yesterday

Maximum temperature yesterday: 86 °F (at 11:01 AM)
Minimum temperature yesterday: 80 °F (at 1:54 AM)
Average temperature yesterday: 83 °F

Past Weeks' High & Low Weather Summary

 TemperatureHumidityPressure
High88 °F (Jul 16, 10:54 AM)100% (Jul 28, 6:21 AM)29.96 "Hg (Jul 28, 6:21 AM)
Low75 °F (Jul 28, 6:21 AM)70% (Jul 22, 2:54 PM)29.75 "Hg (Jul 29, 3:16 PM)
Average82 °F85%29.86 "Hg
* Reported Jul 16 9:54 AM — Jul 31 9:54 AM, Saipan, Weather by CustomWeather, © 2014

Note: Actual official high and low records may vary slightly from our data, if they occured in-between our weather recording intervals... More about our weather records

Advertising

Saipan weather history for previous 24 hours

 ConditionsComfort  
Time TempWeatherWind HumidityBarometerVisibility
9:54 AM
Jul 31
83 °FPartly sunny.12 mph79%29.92 "Hg10 mi
9:47 AM82 °FBroken clouds.12 mph79%29.86 "Hg10 mi
8:54 AM85 °FScattered clouds.15 mph77%29.92 "Hg10 mi
7:54 AM84 °FScattered clouds.13 mph77%29.90 "Hg10 mi
6:54 AM83 °FPassing clouds.14 mph77%29.88 "Hg10 mi
5:54 AM82 °FPassing clouds.14 mph79%29.88 "Hg10 mi
5:41 AM82 °FPassing clouds.15 mph79%29.81 "Hg10 mi
5:34 AM82 °FPartly cloudy.15 mph79%29.81 "Hg10 mi
5:02 AM82 °FPassing clouds.14 mph79%29.80 "Hg10 mi
4:54 AM82 °FPartly cloudy.12 mph82%29.86 "Hg10 mi
3:54 AM82 °FPassing clouds.14 mph82%29.86 "Hg10 mi
3:08 AM82 °FPassing clouds.14 mph79%29.80 "Hg10 mi
2:54 AM82 °FPartly cloudy.14 mph82%29.85 "Hg10 mi
1:54 AM82 °FPassing clouds.15 mph82%29.88 "Hg10 mi
1:36 AM82 °FPassing clouds.17 mph79%29.82 "Hg10 mi
12:54 AM82 °FPassing clouds.16 mph79%29.88 "Hg10 mi
11:54 PM
Jul 30
82 °FPassing clouds.16 mph79%29.88 "Hg10 mi
10:54 PM82 °FPartly cloudy.17 mph79%29.89 "Hg10 mi
9:54 PM82 °FPartly cloudy.15 mph79%29.87 "Hg10 mi
8:54 PM82 °FPassing clouds.15 mph79%29.87 "Hg10 mi
7:54 PM82 °FOvercast.14 mph79%29.85 "Hg10 mi
6:54 PM81 °FPassing clouds.15 mph82%29.83 "Hg10 mi
5:54 PM82 °FBroken clouds.15 mph82%29.82 "Hg10 mi
4:54 PM83 °FBroken clouds.15 mph77%29.81 "Hg10 mi
3:54 PM83 °FSunny.15 mph74%29.76 "Hg10 mi
2:54 PM85 °FScattered clouds.18 mph75%29.76 "Hg10 mi
1:54 PM86 °FSunny.20 mph72%29.83 "Hg10 mi
12:54 PM85 °FPassing clouds.17 mph75%29.78 "Hg10 mi
12:13 PM82 °FLight rain. Broken clouds.20 mph84%29.78 "Hg9 mi
11:54 AM86 °FMore clouds than sun.18 mph75%29.85 "Hg10 mi
11:01 AM86 °FMore clouds than sun.21 mph75%29.79 "Hg10 mi
Weather by CustomWeather, © 2014

See weather overviewHow to use our weather pages